Regional Weather Roundup
Issued by NWS

Home | Current Version | Previous Version | Graphics & Text | Print | Product List | Glossary On
Versions: 1 2 3 4 5 6 7 8 9 10 11 12 13 14 15 16 17 18 19 20 21 22 23 24 25 26 27 28 29 30 31 32 33 34 35 36 37 38 39 40 41 42 43 44 45 46 47 48 49 50
000
ASUS43 KFSD 060110
RWRSD

WEATHER ROUNDUP FOR SOUTH DAKOTA
NATIONAL WEATHER SERVICE SIOUX FALLS SD
700 PM CST THU MAR 05 2015

NOTE: "FAIR" INDICATES FEW OR NO CLOUDS BELOW 12,000 FEET WITH NO
SIGNIFICANT WEATHER AND/OR OBSTRUCTIONS TO VISIBILITY.


SDZ001>005-009-010-012>017-060200-
NORTHWEST AND NORTH CENTRAL SOUTH DAKOTA

CITY           SKY/WX    TMP DP  RH WIND       PRES   REMARKS
BUFFALO          N/A     36  12  37 NW13      30.03R
FAITH            N/A     33  10  38 NW12      30.09R WCI  24
MOBRIDGE       CLEAR     28  13  53 S8        30.06R WCI  20
$$

SDZ012>016-024>037-041>051-057-063-072>074-060200-
SOUTHWEST AND SOUTH CENTRAL SOUTH DAKOTA

CITY           SKY/WX    TMP DP  RH WIND       PRES   REMARKS
RAPID CTY ARPT CLEAR     33  18  53 N13       30.11S WCI  24
PIERRE         CLEAR     28  17  63 S9        30.11S WCI  19
CUSTER         CLEAR     32  12  43 W8        30.11R WCI  25
ELLSWORTH AFB  CLEAR     40  18  42 N8        30.11R
PHILIP         CLEAR     37  16  42 NW10      30.11R
PINE RIDGE     CLEAR     37  22  54 W6        30.16R
SPEARFISH      FAIR      36  18  48 W7        30.12S
WINNER         FAIR      39  15  37 SW7       30.14S
$$

SDZ004>011-016>023-039-040-060200-
NORTHEAST SOUTH DAKOTA

CITY           SKY/WX    TMP DP  RH WIND       PRES   REMARKS
ABERDEEN       CLEAR     16   8  71 S8        30.16F WCI   5
WATERTOWN      PTCLDY    18   7  62 S7        30.17F WCI   9
SISSETON         N/A     17   9  70 S7        30.20F WCI   8
$$

SDZ017-020-022-023-036>040-048>070-060200-
SOUTHEAST SOUTH DAKOTA

CITY           SKY/WX    TMP DP  RH WIND       PRES   REMARKS
SIOUX FALLS    PTCLDY    27   6  41 S13       30.25F WCI  16
HURON          CLEAR     29   9  43 S8        30.17F WCI  21
CHAMBERLAIN    CLEAR     30  14  52 SE3       30.15S
MITCHELL       MOCLDY    30   7  37 SE7       30.20F WCI  23
YANKTON        CLEAR     28   3  34 SE9       30.26F WCI  20
$$

ABBREVIATIONS USED IN REMARKS
   TC - TEMPERATURE IN CELSIUS
  WCI - WIND CHILL INDEX
   HX - HEAT INDEX
  VSB - VISIBILITY



USA.gov is the U.S. government's official web portal to all federal, state and local government web resources and services.